THOR ABLESTAR DEB, 1608

Orbit data source: Space-Track

THOR ABLESTAR DEB, 1608 is space debris in LEO originally from a launch on Sun, 13 Dec 1964 UTC launched from the Air Force Western Test Range (AFWTR). Debris objects in space refer to the collection of defunct objects orbiting the Earth. Examples of debris include non-operational satellites, rocket bodies, and fragments generated from explosions, collisions, or faulty payload assembly.

Loading next visibility...
Identifier
1608, 1964-083H
Orbit
LEO
Country
Flag of USUS
Related business
Manufacturer
Unknown
Mission
Spacecraft
Bus & Motor
Unknown
Mass
Unknown
Launch date (UTC)
1964-12-13 (61 years ago)
Launch vehicle
Unknown
Launch site
Air Force Western Test Range (AFWTR)
Object type
Payload
Rocket body
Debris
Shape & HBR
Unknown shape, 0.1 m
Radar Cross Section
Small (<0.1 m²)

Expand to show TLE details & history
Last TLE update: 19 hours ago

TLE from 19 hours ago
0 THOR ABLESTAR DEB
1 01608U 64083H   25310.79119578  .00001340  00000-0  11595-2 0  9995
2 01608  89.7597  72.0001 0018317  79.2386  75.2448 13.85757816 44118
Epoch: 2025-11-06T18:59Z
TLE epoch observation values (Epoch: 2025-11-06T18:59:19.315Z)
Latitude
25.3413°
Longitude
-79.18803°
Altitude
943.309 km
Speed
7.384 km/s
True Right ascension
16h 47m 32s
True Declination
25° 12' 43"
Sunlit
Object was in daylight at epoch
Visualization orbit readout
Latitude
Unknown
Longitude
Unknown
Altitude
Unknown
Speed
Unknown
Apparent Right ascension
Unknown
Apparent Declination
Unknown
Sunlit
N/A
Visualization observer readout
Local Sidereal Time
10:13:22
Azimuth
Unknown
Elevation
Unknown
Doppler factor
Unknown
Orbital elements
Apogee altitude
953.939 km
Perigee altitude
927.128 km
Semi-major axis
7,318.67 km
Eccentricity
0.00183
Inclination
89.7597°
RAAN
72.0001°
Arg. of periapsis
79.2386°
True anomaly
75.44789°
Mean anomaly
75.2448°
Eccentric anomaly
75.34633°
Mean motion
3.46653 °/min
Orbital period
103.85 mins
BSTAR
0.0011595
Loading maneuver chart data...
Computing Atmospheric mass density...

Documentation

Showing up to 5 results
|